Time,TemperatureF,DewpointF,PressureIn,WindDirection,WindDirectionDegrees,WindSpeedMPH,WindSpeedGustMPH,Humidity,HourlyPrecipIn,Conditions,Clouds,dailyrainin,SoftwareType,DateUTC
2013-04-04 00:01:00,67.0,33.0,29.84,North,0,0.0,1.0,28,0.00,,,0.00,,2013-04-04 07:01:00,
2013-04-04 00:21:00,67.0,31.0,29.84,North,0,0.0,1.0,26,0.00,,,0.00,,2013-04-04 07:21:00,
2013-04-04 00:32:00,67.0,31.0,29.84,North,0,0.0,1.0,26,0.00,,,0.00,,2013-04-04 07:32:00,
2013-04-04 00:52:00,66.0,39.0,29.84,North,0,0.0,1.0,37,0.00,,,0.00,,2013-04-04 07:52:00,
2013-04-04 01:01:00,60.0,47.0,29.83,SE,124,10.0,11.0,63,0.00,,,0.00,,2013-04-04 08:01:00,
2013-04-04 01:12:00,60.0,47.0,29.83,SE,124,10.0,11.0,63,0.00,,,0.00,,2013-04-04 08:12:00,
2013-04-04 01:22:00,60.0,44.0,29.83,SE,129,6.0,8.0,55,0.00,,,0.00,,2013-04-04 08:22:00,
2013-04-04 01:32:00,60.0,44.0,29.83,SE,129,6.0,8.0,55,0.00,,,0.00,,2013-04-04 08:32:00,
2013-04-04 01:42:00,60.0,44.0,29.83,SE,129,6.0,8.0,55,0.00,,,0.00,,2013-04-04 08:42:00,
2013-04-04 01:52:00,61.0,41.0,29.83,SE,127,4.0,7.0,48,0.00,,,0.00,,2013-04-04 08:52:00,
2013-04-04 02:02:00,61.0,41.0,29.84,ESE,118,1.0,8.0,48,0.00,,,0.00,,2013-04-04 09:02:00,
2013-04-04 02:12:00,61.0,41.0,29.84,ESE,118,1.0,8.0,48,0.00,,,0.00,,2013-04-04 09:12:00,
2013-04-04 02:22:00,61.0,43.0,29.84,North,0,0.0,0.0,51,0.00,,,0.00,,2013-04-04 09:22:00,
2013-04-04 02:53:00,58.0,47.0,29.84,SSE,161,9.0,12.0,67,0.00,,,0.00,,2013-04-04 09:53:00,
2013-04-04 03:03:00,56.0,47.0,29.84,SSE,160,8.0,10.0,73,0.00,,,0.00,,2013-04-04 10:03:00,
2013-04-04 03:12:00,56.0,47.0,29.84,SSE,160,8.0,10.0,73,0.00,,,0.00,,2013-04-04 10:12:00,
2013-04-04 03:23:00,57.0,47.0,29.83,North,0,0.0,7.0,70,0.00,,,0.00,,2013-04-04 10:23:00,
2013-04-04 03:32:00,57.0,47.0,29.83,North,0,0.0,7.0,70,0.00,,,0.00,,2013-04-04 10:32:00,
2013-04-04 03:42:00,57.0,47.0,29.83,North,0,0.0,7.0,70,0.00,,,0.00,,2013-04-04 10:42:00,
2013-04-04 03:53:00,57.0,48.0,29.82,North,0,0.0,4.0,72,0.00,,,0.00,,2013-04-04 10:53:00,
2013-04-04 04:02:00,52.0,48.0,29.82,North,0,0.0,1.0,86,0.00,,,0.00,,2013-04-04 11:02:00,
2013-04-04 04:12:00,52.0,48.0,29.82,North,0,0.0,1.0,86,0.00,,,0.00,,2013-04-04 11:12:00,
2013-04-04 04:21:00,53.0,48.0,29.81,North,0,0.0,0.0,83,0.00,,,0.00,,2013-04-04 11:21:00,
2013-04-04 04:32:00,53.0,48.0,29.81,North,0,0.0,0.0,83,0.00,,,0.00,,2013-04-04 11:32:00,
2013-04-04 04:42:00,53.0,48.0,29.81,North,0,0.0,0.0,83,0.00,,,0.00,,2013-04-04 11:42:00,
2013-04-04 04:53:00,54.0,48.0,29.80,SE,135,2.0,5.0,79,0.00,,,0.00,,2013-04-04 11:53:00,
2013-04-04 05:02:00,55.0,48.0,29.81,North,354,1.0,4.0,77,0.00,,,0.00,,2013-04-04 12:02:00,
2013-04-04 05:12:00,55.0,48.0,29.81,North,354,1.0,4.0,77,0.00,,,0.00,,2013-04-04 12:12:00,
2013-04-04 05:21:00,54.0,47.0,29.80,North,349,1.0,4.0,77,0.00,,,0.00,,2013-04-04 12:21:00,
2013-04-04 05:32:00,54.0,47.0,29.80,North,349,1.0,4.0,77,0.00,,,0.00,,2013-04-04 12:32:00,
2013-04-04 05:42:00,54.0,47.0,29.80,North,349,1.0,4.0,77,0.00,,,0.00,,2013-04-04 12:42:00,
2013-04-04 05:52:00,58.0,46.0,29.81,ENE,65,5.0,8.0,64,0.00,,,0.00,,2013-04-04 12:52:00,
2013-04-04 06:01:00,58.0,43.0,29.80,ENE,74,6.0,8.0,58,0.00,,,0.00,,2013-04-04 13:01:00,
2013-04-04 06:22:00,58.0,42.0,29.81,ENE,64,6.0,7.0,56,0.00,,,0.00,,2013-04-04 13:22:00,
2013-04-04 06:52:00,51.0,47.0,29.83,North,0,0.0,12.0,85,0.00,,,0.00,,2013-04-04 13:52:00,
2013-04-04 07:02:00,52.0,48.0,29.83,North,0,0.0,8.0,86,0.00,,,0.00,,2013-04-04 14:02:00,
2013-04-04 07:12:00,52.0,48.0,29.83,North,0,0.0,8.0,86,0.00,,,0.00,,2013-04-04 14:12:00,
2013-04-04 07:22:00,57.0,43.0,29.83,North,0,0.0,0.0,60,0.00,,,0.00,,2013-04-04 14:22:00,
2013-04-04 07:32:00,57.0,43.0,29.83,North,0,0.0,0.0,60,0.00,,,0.00,,2013-04-04 14:32:00,
2013-04-04 07:42:00,57.0,43.0,29.83,North,0,0.0,0.0,60,0.00,,,0.00,,2013-04-04 14:42:00,
2013-04-04 07:52:00,59.0,44.0,29.84,North,0,0.0,6.0,58,0.00,,,0.00,,2013-04-04 14:52:00,
2013-04-04 08:01:00,56.0,46.0,29.85,North,0,0.0,7.0,68,0.00,,,0.00,,2013-04-04 15:01:00,
2013-04-04 08:12:00,56.0,46.0,29.85,North,0,0.0,7.0,68,0.00,,,0.00,,2013-04-04 15:12:00,
2013-04-04 08:22:00,55.0,48.0,29.85,North,0,0.0,4.0,76,0.00,,,0.00,,2013-04-04 15:22:00,
2013-04-04 08:33:00,55.0,48.0,29.85,North,0,0.0,4.0,76,0.00,,,0.00,,2013-04-04 15:33:00,
2013-04-04 08:42:00,55.0,48.0,29.85,North,0,0.0,4.0,76,0.00,,,0.00,,2013-04-04 15:42:00,
2013-04-04 08:53:00,55.0,48.0,29.85,North,0,0.0,4.0,76,0.00,,,0.00,,2013-04-04 15:53:00,
2013-04-04 09:02:00,55.0,47.0,29.86,North,0,0.0,0.0,73,0.00,,,0.00,,2013-04-04 16:02:00,
2013-04-04 09:12:00,55.0,47.0,29.86,North,0,0.0,0.0,73,0.00,,,0.00,,2013-04-04 16:12:00,
2013-04-04 09:23:00,55.0,46.0,29.86,NW,317,1.0,5.0,72,0.00,,,0.00,,2013-04-04 16:23:00,
2013-04-04 09:32:00,55.0,46.0,29.86,NW,317,1.0,5.0,72,0.00,,,0.00,,2013-04-04 16:32:00,
2013-04-04 09:42:00,55.0,46.0,29.86,NW,317,1.0,5.0,72,0.00,,,0.00,,2013-04-04 16:42:00,
2013-04-04 09:53:00,57.0,47.0,29.86,North,0,0.0,9.0,69,0.00,,,0.00,,2013-04-04 16:53:00,
2013-04-04 10:02:00,58.0,47.0,29.87,North,0,0.0,5.0,66,0.00,,,0.00,,2013-04-04 17:02:00,
2013-04-04 10:12:00,58.0,47.0,29.87,North,0,0.0,5.0,66,0.00,,,0.00,,2013-04-04 17:12:00,
2013-04-04 10:22:00,58.0,47.0,29.87,North,0,0.0,3.0,67,0.00,,,0.00,,2013-04-04 17:22:00,
2013-04-04 10:32:00,58.0,47.0,29.87,North,0,0.0,3.0,67,0.00,,,0.00,,2013-04-04 17:32:00,
2013-04-04 10:42:00,58.0,47.0,29.87,North,0,0.0,3.0,67,0.00,,,0.00,,2013-04-04 17:42:00,
2013-04-04 10:52:00,58.0,47.0,29.87,North,0,0.0,5.0,68,0.00,,,0.00,,2013-04-04 17:52:00,
2013-04-04 11:02:00,57.0,46.0,29.88,North,0,0.0,0.0,66,0.00,,,0.00,,2013-04-04 18:02:00,
2013-04-04 11:12:00,57.0,46.0,29.88,North,0,0.0,0.0,66,0.00,,,0.00,,2013-04-04 18:12:00,
2013-04-04 11:22:00,58.0,47.0,29.88,North,0,0.0,8.0,68,0.00,,,0.00,,2013-04-04 18:22:00,
2013-04-04 11:32:00,58.0,47.0,29.88,North,0,0.0,8.0,68,0.00,,,0.00,,2013-04-04 18:32:00,
2013-04-04 11:42:00,58.0,47.0,29.88,North,0,0.0,8.0,68,0.00,,,0.00,,2013-04-04 18:42:00,
2013-04-04 11:52:00,58.0,49.0,29.88,WSW,239,5.0,11.0,72,0.00,,,0.00,,2013-04-04 18:52:00,
2013-04-04 12:02:00,58.0,52.0,29.88,North,0,0.0,0.0,79,0.00,,,0.00,,2013-04-04 19:02:00,
2013-04-04 12:12:00,58.0,52.0,29.88,North,0,0.0,0.0,79,0.00,,,0.00,,2013-04-04 19:12:00,
2013-04-04 12:21:00,59.0,52.0,29.88,North,0,0.0,4.0,78,0.00,,,0.00,,2013-04-04 19:21:00,
2013-04-04 12:32:00,59.0,52.0,29.88,North,0,0.0,4.0,78,0.00,,,0.00,,2013-04-04 19:32:00,
2013-04-04 12:42:00,59.0,52.0,29.88,North,0,0.0,4.0,78,0.00,,,0.00,,2013-04-04 19:42:00,
2013-04-04 12:52:00,61.0,52.0,29.87,SW,228,2.0,5.0,72,0.00,,,0.00,,2013-04-04 19:52:00,
2013-04-04 13:02:00,61.0,52.0,29.87,WSW,250,1.0,5.0,71,0.00,,,0.00,,2013-04-04 20:02:00,
2013-04-04 13:12:00,61.0,52.0,29.87,WSW,250,1.0,5.0,71,0.00,,,0.00,,2013-04-04 20:12:00,
2013-04-04 13:22:00,61.0,53.0,29.85,North,0,0.0,6.0,74,0.00,,,0.00,,2013-04-04 20:22:00,
2013-04-04 13:32:00,61.0,53.0,29.85,North,0,0.0,6.0,74,0.00,,,0.00,,2013-04-04 20:32:00,
2013-04-04 13:42:00,61.0,53.0,29.85,North,0,0.0,6.0,74,0.00,,,0.00,,2013-04-04 20:42:00,
2013-04-04 13:52:00,62.0,54.0,29.85,South,177,1.0,4.0,74,0.00,,,0.00,,2013-04-04 20:52:00,
2013-04-04 14:02:00,63.0,53.0,29.85,SSE,167,3.0,9.0,70,0.00,,,0.00,,2013-04-04 21:02:00,
2013-04-04 14:12:00,63.0,53.0,29.85,SSE,167,3.0,9.0,70,0.00,,,0.00,,2013-04-04 21:12:00,
2013-04-04 14:22:00,59.0,52.0,29.84,South,172,7.0,11.0,77,0.00,,,0.00,,2013-04-04 21:22:00,
2013-04-04 14:32:00,59.0,52.0,29.84,South,172,7.0,11.0,77,0.00,,,0.00,,2013-04-04 21:32:00,
2013-04-04 14:42:00,59.0,52.0,29.84,South,172,7.0,11.0,77,0.00,,,0.00,,2013-04-04 21:42:00,
2013-04-04 14:53:00,59.0,52.0,29.84,SSE,162,8.0,12.0,78,0.00,,,0.00,,2013-04-04 21:53:00,
2013-04-04 15:02:00,59.0,52.0,29.83,SSE,166,5.0,12.0,77,0.00,,,0.00,,2013-04-04 22:02:00,
2013-04-04 15:12:00,59.0,52.0,29.83,SSE,166,5.0,12.0,77,0.00,,,0.00,,2013-04-04 22:12:00,
2013-04-04 15:22:00,60.0,52.0,29.82,SSE,166,3.0,12.0,74,0.00,,,0.00,,2013-04-04 22:22:00,
2013-04-04 15:32:00,60.0,52.0,29.82,SSE,166,3.0,12.0,74,0.00,,,0.00,,2013-04-04 22:32:00,
2013-04-04 15:42:00,60.0,52.0,29.82,SSE,166,3.0,12.0,74,0.00,,,0.00,,2013-04-04 22:42:00,
2013-04-04 15:53:00,58.0,51.0,29.81,South,176,9.0,13.0,78,0.00,,,0.00,,2013-04-04 22:53:00,
2013-04-04 16:02:00,59.0,51.0,29.82,SW,218,13.0,19.0,75,0.00,,,0.00,,2013-04-04 23:02:00,
2013-04-04 16:12:00,59.0,51.0,29.82,SW,218,13.0,19.0,75,0.00,,,0.00,,2013-04-04 23:12:00,
2013-04-04 16:21:00,59.0,52.0,29.80,South,178,9.0,19.0,77,0.00,,,0.00,,2013-04-04 23:21:00,
2013-04-04 16:32:00,59.0,52.0,29.80,South,178,9.0,19.0,77,0.00,,,0.00,,2013-04-04 23:32:00,
2013-04-04 16:42:00,59.0,52.0,29.80,South,178,9.0,19.0,77,0.00,,,0.00,,2013-04-04 23:42:00,
2013-04-04 16:52:00,58.0,52.0,29.80,SSW,202,15.0,28.0,79,0.00,,,0.00,,2013-04-04 23:52:00,
2013-04-04 17:02:00,59.0,52.0,29.80,SSW,192,11.0,20.0,79,0.00,,,0.00,,2013-04-05 00:02:00,
2013-04-04 17:12:00,59.0,52.0,29.80,SSW,192,11.0,20.0,79,0.00,,,0.00,,2013-04-05 00:12:00,
2013-04-04 17:22:00,58.0,52.0,29.80,South,191,8.0,20.0,81,0.00,,,0.00,,2013-04-05 00:22:00,
2013-04-04 17:32:00,58.0,52.0,29.80,South,191,8.0,20.0,81,0.00,,,0.00,,2013-04-05 00:32:00,
2013-04-04 17:42:00,58.0,52.0,29.80,South,191,8.0,20.0,81,0.00,,,0.00,,2013-04-05 00:42:00,
2013-04-04 17:52:00,57.0,51.0,29.80,North,0,0.0,12.0,81,0.00,,,0.00,,2013-04-05 00:52:00,
2013-04-04 18:02:00,60.0,52.0,29.80,West,269,4.0,14.0,76,0.00,,,0.00,,2013-04-05 01:02:00,
2013-04-04 18:12:00,60.0,52.0,29.80,West,269,4.0,14.0,76,0.00,,,0.00,,2013-04-05 01:12:00,
2013-04-04 18:22:00,61.0,53.0,29.80,WSW,238,1.0,6.0,74,0.00,,,0.00,,2013-04-05 01:22:00,
2013-04-04 18:32:00,61.0,53.0,29.80,WSW,238,1.0,6.0,74,0.00,,,0.00,,2013-04-05 01:32:00,
2013-04-04 18:41:00,61.0,53.0,29.80,WSW,238,1.0,6.0,74,0.00,,,0.00,,2013-04-05 01:41:00,
2013-04-04 18:53:00,55.0,50.0,29.79,South,191,7.0,14.0,82,0.00,,,0.00,,2013-04-05 01:53:00,
2013-04-04 19:02:00,51.0,49.0,29.80,SSW,199,8.0,12.0,92,0.00,,,0.00,,2013-04-05 02:02:00,
2013-04-04 19:12:00,51.0,49.0,29.80,SSW,199,8.0,12.0,92,0.00,,,0.00,,2013-04-05 02:12:00,
2013-04-04 19:22:00,55.0,53.0,29.80,WSW,248,1.0,14.0,92,0.00,,,0.00,,2013-04-05 02:22:00,
2013-04-04 19:32:00,55.0,53.0,29.80,WSW,248,1.0,14.0,92,0.00,,,0.00,,2013-04-05 02:32:00,
2013-04-04 19:41:00,55.0,53.0,29.80,WSW,248,1.0,14.0,92,0.00,,,0.00,,2013-04-05 02:41:00,
2013-04-04 19:52:00,58.0,53.0,29.80,West,279,7.0,18.0,83,0.00,,,0.00,,2013-04-05 02:52:00,
2013-04-04 20:01:00,55.0,50.0,29.80,WSW,251,3.0,7.0,82,0.00,,,0.00,,2013-04-05 03:01:00,
2013-04-04 20:12:00,55.0,50.0,29.80,WSW,251,3.0,7.0,82,0.00,,,0.00,,2013-04-05 03:12:00,
2013-04-04 20:22:00,53.0,50.0,29.80,North,0,0.0,7.0,91,0.00,,,0.00,,2013-04-05 03:22:00,
2013-04-04 20:32:00,53.0,50.0,29.80,North,0,0.0,7.0,91,0.00,,,0.00,,2013-04-05 03:32:00,
2013-04-04 20:42:00,53.0,50.0,29.80,North,0,0.0,7.0,91,0.00,,,0.00,,2013-04-05 03:42:00,
2013-04-04 20:53:00,52.0,50.0,29.80,SSE,156,3.0,6.0,92,0.00,,,0.00,,2013-04-05 03:53:00,
2013-04-04 21:02:00,53.0,51.0,29.81,SSE,154,4.0,5.0,93,0.00,,,0.00,,2013-04-05 04:02:00,
2013-04-04 21:12:00,53.0,51.0,29.81,SSE,154,4.0,5.0,93,0.00,,,0.00,,2013-04-05 04:12:00,
2013-04-04 21:22:00,54.0,52.0,29.82,North,0,0.0,0.0,93,0.00,,,0.00,,2013-04-05 04:22:00,
2013-04-04 21:32:00,54.0,52.0,29.82,North,0,0.0,0.0,93,0.00,,,0.00,,2013-04-05 04:32:00,
2013-04-04 21:42:00,54.0,52.0,29.82,North,0,0.0,0.0,93,0.00,,,0.00,,2013-04-05 04:42:00,
2013-04-04 21:52:00,54.0,51.0,29.83,North,0,0.0,0.0,91,0.00,,,0.00,,2013-04-05 04:52:00,
2013-04-04 22:02:00,54.0,51.0,29.83,North,0,0.0,5.0,90,0.00,,,0.00,,2013-04-05 05:02:00,
2013-04-04 22:12:00,54.0,51.0,29.83,North,0,0.0,5.0,90,0.00,,,0.00,,2013-04-05 05:12:00,
2013-04-04 22:21:00,54.0,51.0,29.83,SSE,154,6.0,7.0,91,0.00,,,0.00,,2013-04-05 05:21:00,
2013-04-04 22:32:00,54.0,51.0,29.83,SSE,154,6.0,7.0,91,0.00,,,0.00,,2013-04-05 05:32:00,
2013-04-04 22:42:00,54.0,51.0,29.83,SSE,154,6.0,7.0,91,0.00,,,0.00,,2013-04-05 05:42:00,
2013-04-04 22:52:00,54.0,51.0,29.83,SSE,154,6.0,7.0,91,0.00,,,0.00,,2013-04-05 05:52:00,
2013-04-04 23:02:00,55.0,52.0,29.84,North,0,0.0,4.0,90,0.00,,,0.00,,2013-04-05 06:02:00,
2013-04-04 23:12:00,55.0,52.0,29.84,North,0,0.0,4.0,90,0.00,,,0.00,,2013-04-05 06:12:00,
2013-04-04 23:22:00,53.0,50.0,29.84,North,0,0.0,1.0,90,0.00,,,0.00,,2013-04-05 06:22:00,
2013-04-04 23:32:00,53.0,50.0,29.84,North,0,0.0,1.0,90,0.00,,,0.00,,2013-04-05 06:32:00,
2013-04-04 23:42:00,53.0,50.0,29.84,North,0,0.0,1.0,90,0.00,,,0.00,,2013-04-05 06:42:00,
2013-04-04 23:52:00,53.0,51.0,29.84,North,0,0.0,0.0,93,0.00,,,0.00,,2013-04-05 06:52:00,